Location: Kelshall
(52.0000°N, 0.0500°W)
Time: 01:08:11
(UTC+00:00)

Meteor 1-15 Rocket - Pass Details

Date: 22 January 2021
Orbit: 840 x 907 km, 81.2° (Epoch: 03 March)

Event Time Altitude Azimuth Distance (km) Brightness Sun altitude
Exits shadow 04:00:33 24° 18° (NNE) 1,720 6.0 -35.4°
Drops below altitude 10° 04:02:44 10° 16° (NNE) 2,523 6.9 -35.1°
Sets 04:05:12 0° 15° (NNE) 3,476 7.7 -34.7°
